Showing default

CELESTIS 17/SHERPA-FX1, 47486

Orbit data source: Space-Track

CELESTIS 17/SHERPA-FX1, 47486 is a payload satellite owned by Spaceflight Ind (US) in SSO that was launched on Sun, 24 Jan 2021 UTC via an FALCON 9 launch vehicle from the Air Force Eastern Test Range (AFETR). Payload-class satellites include a variety of spacecraft equipped with specific instruments for various scientific and technological missions. These include communications satellites like Starlink; space stations such as the ISS; scientific satellites like the Hubble; Earth observation satellites from companies like Planet Labs, Umbra, and HawkEye 360; GPS; miniature CubeSats for education and research; and military/defense satellites.

Loading next visibility...
Identifier
47486, 2021-006CB
Orbit
SSO
Country
Flag of USUS
Related business
Manufacturer
Spaceflight Ind
Mission
Operational Commercial Technology
Bus & Motor
ESPA/SHERPA-FX, Unknown motor
Mass
130 kg wet, 130 kg dry
Launch date (UTC)
2021-01-24 (6 years ago)
Launch vehicle
FALCON 9
Launch site
Air Force Eastern Test Range (AFETR)
Object type
Payload
Rocket body
Debris
Shape & HBR
Cyl, 0.4 m
Radar Cross Section
0.503 m², Large (>1 m²)

Expand to show TLE details & history
Last TLE update: 13 hours ago

TLE from 13 hours ago
0 CELESTIS 17/SHERPA-FX1
1 47486U 21006CB  26207.58757147  .00006139  00000-0  19754-3 0  9997
2 47486  97.2238 247.7130 0008077  66.0586 294.1502 15.32554675305339
Epoch: 2026-07-26T14:06Z
TLE epoch observation values (Epoch: 2026-07-26T14:06:06.175Z)
Latitude
0.00005°
Longitude
91.90391°
Altitude
469.047 km
Speed
7.633 km/s
True Right ascension
16h 30m 51s
True Declination
0° 00' 00"
Sunlit
Object was in full shadow at epoch
Visualization orbit readout
Latitude
Unknown
Longitude
Unknown
Altitude
Unknown
Speed
Unknown
Apparent Right ascension
Unknown
Apparent Declination
Unknown
Sunlit
N/A
Visualization observer readout
Local Sidereal Time
16:48:37
Azimuth
Unknown
Elevation
Unknown
Doppler factor
Unknown
Orbital elements
Apogee altitude
470.662 km
Perigee altitude
459.607 km
Semi-major axis
6,843.272 km
Eccentricity
0.00081
Inclination
97.2238°
RAAN
247.713°
Arg. of periapsis
66.0586°
True anomaly
294.06571°
Mean anomaly
294.1502°
Eccentric anomaly
294.10796°
Mean motion
3.83396 °/min
Orbital period
93.9 mins
BSTAR
0.00019754
Loading maneuver chart data...
Computing Atmospheric mass density...

Documentation

Showing up to 5 results
|